Location: ?????????
(54.7630°N, 39.4991°E)
Time: 21:07:31
(UTC+00:00)

Cosmos 2074 Rocket - Pass Details

Date: 14 April 2026
Orbit: 967 x 984 km, 82.9° (Epoch: 11 May)

Event Time Altitude Azimuth Distance (km) Brightness Sun altitude
Rises 17:03:16 0° 195° (SSW) 3,657 6.9 -6.1°
Reaches altitude 10° 17:05:46 10° 197° (SSW) 2,716 6.3 -6.4°
Maximum altitude 17:11:59 74° 283° (WNW) 1,019 4.3 -7.2°
Drops below altitude 10° 17:18:18 10° 9° (N) 2,746 6.6 -8.0°
Sets 17:20:50 0° 11° (NNE) 3,700 7.3 -8.3°
